Espaço - Ciências - Fenômenos Naturais
Meteógrafos Informações Meteorológicas em tempo real

Aeroporto de Congonhas

Histórico do Tempo
Temperatura atual: 23 graus 73 F    Umidade relativa: 83 %
Velocidade do vento: 11 nós 19 Km/h    Direção: 170 graus S
Ajuste do altímetro ..: 1014 HPA
Visibilidade: Ótima    Tempo presente: Chovendo fraco

Observação
Nuvens esparsas a 800 Pés., Céu nublado a 1000 Pés., Céu nublado a 1600 Pés.

Data Hora BRTTempo°CUmidadePressãoVentoVisib.
27/02 - 15:55   Muitas Nuvens 23° 83% 1014 Sul/18 km/h OK
27/02 - 14:55   Chovendo muito forte ND° ND% 1014 Sul/25 km/h 2000
27/02 - 13:55   Muitas Nuvens 28° 51% 1014 Noroeste/12 km/h 9999
27/02 - 12:55   Poucas nuvens esparsas 27° 54% 1016 Norte-noroeste/16 km/h OK
27/02 - 11:55   Poucas nuvens esparsas 27° 54% 1016 Norte-noroeste/16 km/h OK
27/02 - 10:55   Não Disponível 25° 65% 1017 Norte-noroeste/12 km/h OK
27/02 - 09:55   Não Disponível 25° 65% 1017 Norte-noroeste/12 km/h OK
27/02 - 08:55   Céu Limpo 23° 73% 1017 Norte-noroeste/14 km/h OK
27/02 - 07:55   Céu Limpo 22° 78% 1017 Noroeste/12 km/h OK
27/02 - 06:55   Céu Limpo 20° 88% 1016 Oeste-noroeste/5 km/h OK
27/02 - 05:55   Céu Limpo 20° 88% 1016 Oeste-noroeste/5 km/h OK
27/02 - 04:55   Não Disponível 21° 83% 1016 /1 km/h OK
27/02 - 03:55   Não Disponível 21° 83% 1016 Este-nordeste/3 km/h 9000
27/02 - 02:55   Céu Limpo 21° 83% 1016 Norte-nordeste/5 km/h CAVO
27/02 - 01:55   Céu Limpo 21° 83% 1016 Nordeste/5 km/h CAVO
27/02 - 00:55   Céu Limpo 21° 83% 1017 Este-nordeste/5 km/h OK
26/02 - 23:55   Céu Limpo 22° 78% 1017 Este-nordeste/5 km/h CAVO
26/02 - 22:55   Parcialmente Nublado 22° 78% 1018 Este-sudeste/3 km/h OK
26/02 - 21:55   Céu Limpo 22° 73% 1018 Sudeste/9 km/h OK
26/02 - 20:55   Poucas nuvens esparsas 22° 73% 1017 Norte-nordeste/5 km/h OK
26/02 - 19:55   Muitas Nuvens 23° 73% 1017 Este-nordeste/12 km/h OK
26/02 - 18:55   Poucas nuvens esparsas 23° 73% 1016 Sudeste/18 km/h OK
26/02 - 17:55   Parcialmente Nublado 23° 73% 1016 Sul-sudeste/21 km/h OK
26/02 - 16:55   Parcialmente Nublado 25° 65% 1016 Sudeste/23 km/h OK


Apolo11.com - Todos os direitos reservados - 2000 - 2017
Política de Privacidade   |     Termo de Uso e Licenciamento   |  -   Entre em Contato

"Pela rédea o cava,lo conhece quem o está montando" - Provérbio Turco"